Location: Altmannsberg
(49.5891°N, 11.7600°E)
Time: 12:18:05
(UTC+00:00)

Daily predictions for brighter satellites

Satellite Brightness Start Highest point End
(mag) Time Altitude Azimuth Time Altitude Azimuth Time Altitude Azimuth
Cosmos 2285 Rocket 4.2 15:40:54 10° NNW 15:47:10 53° ENE 15:53:22 10° SE
SL-16 R/B 4.4 15:43:07 10° N 15:48:04 25° NW 15:53:00 10° WSW
COSMOS 2428 3.9 15:46:07 10° WSW 15:51:28 39° NW 15:56:50 10° NNE
X-37B 3.0 15:51:49 10° SSW 15:53:45 15° SSE 15:55:41 10° ESE
USA 267 3.7 15:48:10 10° ENE 15:54:23 47° N 16:00:35 10° WNW
PAYLOAD B 4.3 15:50:07 10° SSE 15:55:38 66° ENE 16:01:08 10° N
NOSS 0 Rocket 4.4 15:50:31 10° SW 15:56:43 65° NW 16:02:56 10° NNE
H-2A R/B 3.8 15:57:20 10° ENE 15:58:11 10° NE 15:59:03 10° NE
Cosmos 1805 Rocket 3.7 15:53:47 10° N 15:58:16 86° W 16:02:41 10° S
Cosmos 1356 3.3 15:56:22 10° N 15:59:50 79° ENE 16:03:15 10° SSE
Meteor 1-4 Rocket 4.2 15:58:18 10° SE 16:00:35 16° E 16:02:51 10° NE
Cosmos 44 Rocket 4.4 15:56:27 10° NNW 16:00:49 27° NNE 16:05:13 10° E
Meteor 1-20 Rocket 4.5 15:55:53 10° N 16:01:38 53° ENE 16:07:18 10° SSE
SJ-7 4.3 15:58:00 10° SSE 16:01:59 88° ENE 16:06:00 10° NNW
BREEZE-M DEB (TANK) 4.3 15:58:37 10° WSW 16:02:38 85° SSE 16:17:01 10° E
Cosmos 1328 Rocket 4.5 16:00:04 10° SSE 16:03:43 27° E 16:07:25 10° NNE
Cosmos 2181 Rocket 4.4 15:57:58 10° SSE 16:03:55 42° E 16:09:49 10° NNE
Cosmos 1939 Rocket 4.2 16:01:59 10° ESE 16:04:41 18° ENE 16:07:25 10° NNE
Cosmos 1666 Rocket 3.6 16:01:15 10° N 16:05:38 57° ENE 16:10:01 10° SSE
Cosmos 389 Rocket 2.3 16:03:09 10° S 16:06:32 72° E 16:09:57 10° NNE
Cosmos 2237 Rocket 2.6 16:01:00 10° SW 16:06:34 64° WNW 16:12:13 10° NNE
CZ-4 R/B 3.3 16:05:49 10° ENE 16:07:07 11° NE 16:08:24 10° NE
Cosmos 44 3.9 16:01:55 10° NW 16:07:12 72° SW 16:12:35 10° SSE
PSLV R/B 4.1 16:05:36 10° S 16:09:41 78° WSW 16:13:45 10° NNW
CZ-4B R/B 3.1 16:04:53 10° SSE 16:10:06 61° ENE 16:15:19 10° N
H-2A R/B 2.4 16:08:43 10° SSE 16:12:56 87° ENE 16:17:01 10° NNW
Cosmos 2369 Rocket 2.5 16:09:12 10° NNW 16:14:41 46° NE 16:20:06 10° SE
Cosmos 1943 Rocket 2.1 16:10:49 10° NNW 16:16:22 69° ENE 16:21:56 10° SE
ADEOS Rocket 3.7 16:08:41 10° NNE 16:16:30 89° ESE 16:24:13 10° SSW
NOAA 12 4.1 16:14:27 10° SSE 16:19:44 69° ENE 16:25:02 10° N
H-2A R/B 2.1 16:16:43 10° NNE 16:20:54 58° ESE 16:25:08 10° S
Okean O Rocket 1.5 16:22:10 10° SSE 16:26:30 69° ENE 16:30:54 10° N
NOAA 6 4.5 16:21:24 10° S 16:26:31 68° WSW 16:31:39 10° NNW
Radarsat 4.5 16:22:20 10° SSE 16:27:30 71° ENE 16:32:41 10° N
Cosmos 1782 3.5 16:23:58 10° SSE 16:27:30 32° E 16:31:04 10° NNE
Okean-O 3.9 16:25:09 10° ESE 16:28:21 20° ENE 16:31:32 10° NNE
CRYOSAT 2 4.3 16:23:28 10° N 16:28:24 86° E 16:33:19 10° S
Cosmos 1633 Rocket 3.0 16:25:29 10° N 16:29:53 82° ENE 16:34:14 10° SSE
ISS -3.6 16:27:31 10° W 16:30:51 58° N 16:32:58 20° ENE
H-2A R/B 4.4 16:27:31 10° SSW 16:31:08 38° W 16:34:48 10° NNW
Cosmos 1933 3.3 16:29:04 10° S 16:33:06 76° E 16:37:12 10° NNE
Cosmos 2218 Rocket 3.9 16:30:07 10° N 16:36:18 75° E 16:42:27 10° SSE
Cosmos 2366 rocket 3.9 16:31:04 10° N 16:37:16 73° E 16:43:23 10° SSE
ERS-2 3.1 16:36:10 19° NE 16:37:56 28° E 16:41:07 10° SSE
Meteor 1-25 Rocket 4.3 16:32:27 10° NNW 16:38:08 89° W 16:43:50 10° S
Cosmos 1867 4.0 16:34:34 10° SW 16:39:58 62° NW 16:44:55 13° NE
Envisat 4.1 16:37:56 10° S 16:42:51 49° W 16:47:48 10° NNW
Lacrosse 5 rocket 1.2 16:44:45 10° WSW 16:48:23 66° NNW 16:50:15 26° NE
Cosmos 371 Rocket 4.4 16:44:30 10° N 16:48:28 24° NE 16:49:18 23° ENE
Cosmos 773 Rocket 4.0 16:44:16 10° SSW 16:49:32 82° ESE 16:54:46 11° NNE
YAOGAN 6 4.3 16:48:36 10° SSW 16:51:57 35° W 16:55:18 10° NNW
NOSS 3-2 (A) 4.4 16:47:33 10° SSE 16:52:07 25° ESE 16:54:01 22° E
Cosmos 1606 4.3 16:51:21 10° SW 16:54:57 35° WNW 16:58:33 10° N
FengYun 1-2 T 4.3 16:51:26 10° SSE 16:56:58 85° WSW 17:02:31 10° NNW
Feng Yun 1-1 Rocket 4.2 16:51:24 10° SSE 16:57:05 70° ENE 17:02:38 10° NNW
CZ-4B R/B 1.2 16:56:26 33° NE 16:57:31 54° E 17:00:38 10° S
SL-16 R/B 2.5 16:54:05 10° SW 16:59:42 66° WNW 17:05:05 11° NNE
USA 215 4.1 16:59:21 22° E 17:02:17 31° SE 17:07:57 10° S
BREEZE-M DEB (TANK) 2.1 17:01:22 10° WSW 17:03:26 43° S 17:03:26 43° S
Cosmos 1500 3.3 17:01:44 10° N 17:05:29 51° ENE 17:09:13 10° SSE
SMAP 4.2 17:01:37 10° S 17:06:05 46° W 17:10:36 10° NNW
YAOGAN 1 3.0 17:09:19 36° E 17:09:41 37° ENE 17:13:41 10° N
Cosmos 1656 Rocket 3.6 17:04:39 10° NNW 17:10:18 65° ENE 17:15:50 10° SE
USA 238 DEB 4.3 17:05:25 10° S 17:11:10 33° ESE 17:13:06 28° E
SL-24 DEB 4.2 17:06:34 10° NNE 17:11:16 59° E 17:15:54 10° S
USA 238 4.3 17:05:32 10° S 17:11:17 33° ESE 17:13:11 28° E
Cosmos 1470 Rocket 3.9 17:08:05 10° NNW 17:12:22 65° W 17:16:39 10° S
Cosmos 1151 Rocket 3.7 17:09:07 10° SSW 17:13:18 54° WNW 17:17:30 10° N
MOS 1 Rocket 4.2 17:13:25 32° ENE 17:14:27 34° E 17:19:20 10° SSE
Cosmos 2263 4.1 17:13:30 10° NNW 17:19:09 89° WSW 17:24:45 10° SSE
Cosmos 158 Rocket 4.2 17:16:05 10° S 17:20:40 39° ESE 17:20:55 39° E
Cosmos 1934 Rocket 4.3 17:15:04 10° N 17:21:08 44° ENE 17:27:06 10° SE
Cosmos 1515 Rocket 3.5 17:16:51 10° S 17:21:15 85° W 17:25:08 14° N
CZ-2C R/B 2.9 17:16:52 10° SSE 17:21:43 58° ENE 17:26:26 10° N
SWAS 4.4 17:19:15 10° SSW 17:23:28 63° ESE 17:24:10 53° ENE
Cosmos 923 Rocket 4.2 17:19:07 10° S 17:24:01 45° ESE 17:24:49 42° E
Cosmos 1238 Rocket 3.0 17:20:39 10° N 17:24:31 57° E 17:29:13 10° SSE
COSMO-SKYMED 1 2.4 17:23:06 31° NNE 17:25:09 71° ESE 17:29:29 10° S
USA 281 3.1 17:21:59 10° SE 17:28:29 67° ENE 17:35:01 10° NNW
SAR-Lupe-4 3.7 17:29:14 58° SSE 17:29:14 58° SSE 17:32:19 10° S
CSL-04 Debris 4.4 17:27:30 34° ESE 17:29:17 46° ENE 17:34:31 10° N
X-37B 2.0 17:26:55 10° WSW 17:29:28 31° S 17:29:28 31° S
Nadezhda 3 Rocket 3.9 17:24:22 10° S 17:30:40 66° E 17:36:58 10° NNE
Helios 1A Rocket 2.8 17:33:25 66° NE 17:33:25 66° NE 17:37:13 10° N
Meteor 2-6 Rocket 4.0 17:28:10 10° S 17:33:42 70° E 17:37:14 22° NNE
Cosmos 2228 Rocket 3.0 17:29:21 10° S 17:33:50 65° E 17:34:29 57° NE
Meteor 1-4 Rocket 3.9 17:31:56 10° SW 17:35:19 38° WNW 17:37:26 19° NNW
H-2A R/B 2.1 17:35:18 43° ESE 17:36:34 54° ENE 17:41:33 10° N
USA 267 3.2 17:34:11 37° E 17:36:56 69° NNE 17:43:26 10° WNW
Cosmos 1821 Rocket 3.9 17:30:53 10° N 17:37:10 88° E 17:43:30 10° S
Cosmos 1812 3.3 17:33:50 10° S 17:36:35 45° SSE 17:36:35 45° SSE
Cosmos 1939 Rocket 3.7 17:35:30 10° S 17:39:16 49° W 17:43:08 10° NNW
Meteor 1-11 Rocket 3.7 17:34:33 10° N 17:40:19 65° ENE 17:46:10 10° SSE
CZ-4 R/B 1.2 17:41:27 85° ENE 17:41:27 85° ENE 17:45:31 10° NNW
NOSS 3-3 (A) 4.4 17:34:05 10° NW 17:41:29 87° NE 17:47:58 18° SE
PSLV R/B 4.2 17:42:19 54° SSE 17:42:19 54° SSE 17:45:33 10° S
NOSS 3-3 (C) 4.4 17:34:08 10° NW 17:41:35 87° NE 17:47:58 19° SE
Cosmos 44 Rocket 3.4 17:37:45 10° NW 17:42:57 84° SW 17:45:09 36° SSE
BREEZE-M DEB (TANK) 4.3 17:41:44 10° SSW 17:42:53 15° S 17:42:53 15° S
CSL-04 Rocket 3.6 17:44:05 55° ENE 17:44:05 55° ENE 17:49:13 10° N
IRS-1C Rocket 4.5 17:40:20 10° S 17:45:34 64° WSW 17:50:51 10° NNW
Cosmos 1980 Rocket 4.4 17:44:56 10° N 17:45:17 10° N 17:45:17 10° N
SL-24 R/B 3.9 17:49:33 67° WSW 17:49:33 67° WSW 17:52:56 10° SSW
Lacrosse 4 Rocket 3.9 17:46:52 10° S 17:46:59 11° S 17:46:59 11° S
Cosmos 1680 Rocket 3.6 17:45:42 10° S 17:50:18 55° SE 17:50:18 55° SE
Cosmos 2237 Rocket 4.4 17:48:08 10° WNW 17:51:49 17° NW 17:55:31 10° N
Cosmos 1603 3.6 17:49:35 10° SSW 17:55:13 83° WNW 17:56:56 47° NNE
CZ-2D R/B 4.3 17:52:28 10° S 17:56:09 44° W 17:59:51 10° NNW
Cosmos 1943 3.1 17:52:54 10° SSW 17:58:35 87° WNW 17:59:58 54° NNE
Cosmos 2369 Rocket 3.7 17:53:28 10° NW 17:58:37 36° WSW 18:03:41 10° S
Cosmos 1371 Rocket 3.9 17:58:47 10° NNW 18:03:40 77° N 18:03:40 77° N
Okean-O 3.1 18:00:04 10° S 18:04:26 58° WSW 18:08:50 10° NNW
ARGOS 3.6 18:08:32 48° N 18:08:32 48° N 18:12:28 10° N
ISS -1.5 18:04:25 10° WNW 18:05:55 24° WNW 18:05:55 24° WNW
CENTAUR R/B 2.8 18:03:03 10° SSW 18:07:44 47° SSE 18:07:44 47° SSE
Cosmos 2056 Rocket 3.6 18:04:58 10° NNW 18:09:29 64° N 18:09:29 64° N
ERS-2 4.1 18:10:45 25° NW 18:11:25 26° WNW 18:14:31 10° WSW
NOSS 3-2 (C) 4.0 18:11:19 10° SSW 18:15:09 42° S 18:15:09 42° S
Cosmos 1869 Rocket 4.4 18:12:48 10° NNW 18:17:09 50° W 18:17:48 46° WSW
BREEZE-M DEB (TANK) 4.4 18:15:20 10° WSW 18:19:59 36° SW 18:19:59 36° SW
Lacrosse 5 rocket 3.8 18:24:52 10° WNW 18:25:53 16° WNW 18:25:53 16° WNW
Cosmos 371 Rocket 4.3 18:24:27 10° NNW 18:28:00 44° NW 18:28:00 44° NW
NOSS 3-2 (A) 3.6 18:36:26 10° SW 18:41:27 65° W 18:41:27 65° W
SL-16 R/B 4.4 18:41:12 10° WNW 18:44:58 18° NW 18:46:58 15° N
USA 215 3.3 18:46:42 71° SW 18:46:42 71° SW 18:52:27 10° WSW
USA 238 DEB 4.1 18:55:04 10° SW 19:00:35 58° W 19:00:35 58° W
USA 238 4.1 18:55:09 10° SW 19:00:39 58° W 19:00:39 58° W
H-2A R/B 4.0 19:15:56 24° W 19:16:18 24° W 19:20:28 10° NW
USA 267 4.1 19:21:32 45° W 19:21:32 45° W 19:26:30 10° WNW
